NWS244 UWKD-ULLI

Flight info

Callsign NWS244
Flight time N/A
Altitude 34000
Route APTAR L158 IRGOS T613 DOGOB M864 ELMOD L4 NUDKO T561 ODATI T875 GENPA
Aircraft A321/M-SDE3FGHIRWY/LB1

Departure

Time 2026-05-06 17:05
Airport Kazan International Airport (UWKD)

Arrival

Time N/A
Airport Pulkovo Airport (ULLI)
Time Latitude Longitude Altitude Speed Heading
2026-05-06 16:22 55.60653 49.29734 416 ft 0 kts 35°
2026-05-06 16:56 55.60655 49.29737 416 ft 1 kts 35°
2026-05-06 16:57 55.60673 49.29756 413 ft 5 kts 26°
2026-05-06 16:57 55.60711 49.29745 410 ft 7 kts 323°
2026-05-06 16:57 55.60744 49.29660 413 ft 10 kts 303°
2026-05-06 16:57 55.60786 49.29546 412 ft 11 kts 304°
2026-05-06 16:58 55.60807 49.29427 416 ft 11 kts 240°
2026-05-06 16:58 55.60744 49.29341 416 ft 13 kts 213°
2026-05-06 16:58 55.60664 49.29245 411 ft 15 kts 214°
2026-05-06 16:58 55.60583 49.29119 407 ft 16 kts 241°
2026-05-06 16:59 55.60580 49.28909 416 ft 18 kts 275°
2026-05-06 16:59 55.60591 49.28682 416 ft 18 kts 275°
2026-05-06 16:59 55.60646 49.28478 410 ft 20 kts 305°
2026-05-06 16:59 55.60724 49.28273 409 ft 21 kts 304°
2026-05-06 17:00 55.60805 49.28063 409 ft 21 kts 304°
2026-05-06 17:00 55.60890 49.27844 415 ft 22 kts 304°
2026-05-06 17:00 55.60977 49.27621 411 ft 22 kts 305°
2026-05-06 17:00 55.61066 49.27396 408 ft 22 kts 304°
2026-05-06 17:01 55.61154 49.27167 407 ft 23 kts 304°
2026-05-06 17:01 55.61245 49.26930 413 ft 24 kts 304°
2026-05-06 17:01 55.61338 49.26687 411 ft 24 kts 306°
2026-05-06 17:01 55.61437 49.26443 410 ft 25 kts 305°
2026-05-06 17:02 55.61531 49.26191 410 ft 25 kts 303°
2026-05-06 17:02 55.61627 49.25944 410 ft 24 kts 305°
2026-05-06 17:02 55.61722 49.25701 416 ft 23 kts 305°
2026-05-06 17:02 55.61813 49.25469 410 ft 21 kts 305°
2026-05-06 17:03 55.61842 49.25282 415 ft 15 kts 235°
2026-05-06 17:03 55.61743 49.25160 408 ft 15 kts 213°
2026-05-06 17:03 55.61677 49.25154 410 ft 8 kts 139°
2026-05-06 17:03 55.61656 49.25214 411 ft 0 kts 122°
2026-05-06 17:04 55.61655 49.25216 411 ft 3 kts 122°
2026-05-06 17:04 55.61491 49.25641 414 ft 79 kts 124°
2026-05-06 17:04 55.61060 49.26752 410 ft 137 kts 124°
2026-05-06 17:05 55.60428 49.28376 418 ft 180 kts 126°
2026-05-06 17:05 55.59681 49.30254 823 ft 188 kts 127°
2026-05-06 17:05 55.58933 49.32178 1418 ft 191 kts 126°
2026-05-06 17:05 55.58187 49.34145 2009 ft 194 kts 126°
2026-05-06 17:06 55.57426 49.36096 2529 ft 193 kts 126°
2026-05-06 17:06 55.56659 49.38060 2993 ft 196 kts 126°
2026-05-06 17:06 55.55880 49.40008 3458 ft 198 kts 127°
2026-05-06 17:06 55.55012 49.41986 3705 ft 214 kts 137°
2026-05-06 17:07 55.53632 49.43029 3806 ft 227 kts 180°
2026-05-06 17:07 55.52087 49.42283 3890 ft 244 kts 217°
2026-05-06 17:07 55.50936 49.39980 4187 ft 256 kts 240°
2026-05-06 17:07 55.49868 49.37428 4814 ft 264 kts 225°
2026-05-06 17:08 55.48276 49.35663 5364 ft 275 kts 204°
2026-05-06 17:08 55.46516 49.34433 6105 ft 276 kts 205°
2026-05-06 17:08 55.44749 49.33071 6784 ft 279 kts 207°
2026-05-06 17:08 55.43011 49.31555 7458 ft 279 kts 217°
2026-05-06 17:09 55.41600 49.29229 7795 ft 279 kts 236°
2026-05-06 17:09 55.40775 49.26207 7842 ft 273 kts 257°
2026-05-06 17:09 55.40627 49.22904 7790 ft 271 kts 277°
2026-05-06 17:09 55.40876 49.19632 7839 ft 271 kts 278°
2026-05-06 17:10 55.41116 49.16346 7847 ft 271 kts 277°
2026-05-06 17:10 55.41343 49.13071 8421 ft 274 kts 277°
2026-05-06 17:10 55.41569 49.09737 9155 ft 275 kts 277°
2026-05-06 17:10 55.41791 49.06387 9851 ft 277 kts 277°
2026-05-06 17:11 55.42022 49.02925 10148 ft 295 kts 277°
2026-05-06 17:11 55.42272 48.99209 10277 ft 316 kts 277°
2026-05-06 17:11 55.42540 48.95241 10437 ft 335 kts 277°
2026-05-06 17:11 55.42813 48.91113 10891 ft 343 kts 277°
2026-05-06 17:12 55.43087 48.86921 11476 ft 346 kts 277°
2026-05-06 17:12 55.43359 48.82739 12075 ft 350 kts 277°
2026-05-06 17:12 55.43637 48.78462 12690 ft 353 kts 277°
2026-05-06 17:12 55.43918 48.74144 13283 ft 357 kts 277°
2026-05-06 17:13 55.44199 48.69778 13867 ft 361 kts 277°
2026-05-06 17:13 55.44481 48.65368 14406 ft 364 kts 277°
2026-05-06 17:13 55.44765 48.60916 14958 ft 367 kts 277°
2026-05-06 17:13 55.45052 48.56430 15494 ft 370 kts 277°
2026-05-06 17:14 55.45530 48.51957 16020 ft 374 kts 286°
2026-05-06 17:14 55.46289 48.47621 16554 ft 377 kts 287°
2026-05-06 17:14 55.47066 48.43191 17096 ft 380 kts 287°
2026-05-06 17:14 55.47846 48.38723 17635 ft 383 kts 287°
2026-05-06 17:15 55.48629 48.34214 18172 ft 386 kts 287°
2026-05-06 17:15 55.49418 48.29668 18627 ft 389 kts 287°
2026-05-06 17:15 55.50212 48.25090 19121 ft 392 kts 287°
2026-05-06 17:15 55.51006 48.20484 19607 ft 394 kts 287°
2026-05-06 17:16 55.51802 48.15841 20089 ft 396 kts 286°
2026-05-06 17:16 55.52586 48.11238 20559 ft 399 kts 286°
2026-05-06 17:16 55.53383 48.06538 21014 ft 401 kts 286°
2026-05-06 17:16 55.54183 48.01806 21451 ft 403 kts 286°
2026-05-06 17:17 55.54991 47.97048 21890 ft 406 kts 286°
2026-05-06 17:17 55.55804 47.92263 22325 ft 408 kts 286°
2026-05-06 17:17 55.56620 47.87443 22749 ft 410 kts 286°
2026-05-06 17:17 55.57437 47.82596 23161 ft 413 kts 286°
2026-05-06 17:18 55.58256 47.77721 23543 ft 415 kts 286°
2026-05-06 17:18 55.59078 47.72817 23899 ft 417 kts 286°
2026-05-06 17:18 55.59893 47.67952 24250 ft 419 kts 286°
2026-05-06 17:18 55.60722 47.63005 24596 ft 421 kts 286°
2026-05-06 17:19 55.61549 47.58030 24949 ft 423 kts 285°
2026-05-06 17:19 55.62377 47.53028 25288 ft 424 kts 285°
2026-05-06 17:19 55.63205 47.48004 25632 ft 426 kts 285°
2026-05-06 17:19 55.64034 47.42958 25981 ft 428 kts 285°
2026-05-06 17:20 55.64868 47.37889 26311 ft 430 kts 285°
2026-05-06 17:20 55.65706 47.32797 26641 ft 432 kts 285°
2026-05-06 17:20 55.66534 47.27746 26954 ft 433 kts 285°
2026-05-06 17:20 55.67369 47.22613 27271 ft 435 kts 285°
2026-05-06 17:21 55.68205 47.17451 27594 ft 437 kts 285°
2026-05-06 17:21 55.69044 47.12264 27905 ft 438 kts 285°
2026-05-06 17:21 55.69888 47.07058 28221 ft 440 kts 285°
2026-05-06 17:21 55.70734 47.01837 28537 ft 442 kts 285°
2026-05-06 17:22 55.71583 46.96588 28857 ft 444 kts 285°
2026-05-06 17:22 55.72433 46.91316 29216 ft 444 kts 285°
2026-05-06 17:22 55.73263 46.86128 29660 ft 442 kts 285°
2026-05-06 17:22 55.74095 46.80886 30076 ft 441 kts 285°
2026-05-06 17:23 55.74923 46.75658 30452 ft 439 kts 285°
2026-05-06 17:23 55.75746 46.70443 30875 ft 437 kts 284°
2026-05-06 17:23 55.76557 46.65283 31364 ft 432 kts 284°
2026-05-06 17:23 55.77358 46.60154 31761 ft 430 kts 284°
2026-05-06 17:24 55.78154 46.55042 32127 ft 429 kts 284°
2026-05-06 17:24 55.78948 46.49946 32470 ft 428 kts 284°
2026-05-06 17:24 55.79608 46.44878 32802 ft 426 kts 278°
2026-05-06 17:24 55.80070 46.39677 33113 ft 425 kts 278°
2026-05-06 17:25 55.80524 46.34485 33443 ft 425 kts 278°
2026-05-06 17:25 55.80972 46.29300 33763 ft 424 kts 278°
2026-05-06 17:25 55.81414 46.24116 33852 ft 423 kts 277°
2026-05-06 17:26 55.82291 46.13800 33855 ft 421 kts 277°
2026-05-06 17:26 55.83159 46.03576 33859 ft 421 kts 277°
2026-05-06 17:27 55.84015 45.93290 33856 ft 420 kts 277°
2026-05-06 17:27 55.84873 45.83001 33856 ft 420 kts 277°
2026-05-06 17:28 55.85729 45.72716 33863 ft 421 kts 277°
2026-05-06 17:28 55.86566 45.62470 33871 ft 421 kts 277°
2026-05-06 17:29 55.87389 45.52152 33874 ft 421 kts 277°
2026-05-06 17:29 55.88207 45.41823 33881 ft 421 kts 277°
2026-05-06 17:30 55.89019 45.31497 33884 ft 421 kts 277°
2026-05-06 17:30 55.89819 45.21236 33888 ft 421 kts 277°
2026-05-06 17:31 55.90622 45.10898 33887 ft 421 kts 277°
2026-05-06 17:31 55.91413 45.00560 33885 ft 421 kts 277°
2026-05-06 17:32 55.92187 44.90217 33886 ft 421 kts 276°
2026-05-06 17:32 55.92952 44.79941 33891 ft 421 kts 277°
2026-05-06 17:33 55.93710 44.69595 33890 ft 421 kts 276°
2026-05-06 17:33 55.94457 44.59239 33888 ft 421 kts 276°
2026-05-06 17:34 55.95202 44.48882 33887 ft 421 kts 276°
2026-05-06 17:34 55.95936 44.38520 33885 ft 421 kts 276°
2026-05-06 17:35 55.96660 44.28216 33883 ft 421 kts 276°
2026-05-06 17:35 55.97381 44.17837 33888 ft 421 kts 276°
2026-05-06 17:36 55.98446 44.02242 33887 ft 422 kts 276°
2026-05-06 17:36 55.99138 43.91906 33889 ft 422 kts 276°
2026-05-06 17:37 55.99824 43.81483 33887 ft 423 kts 276°
2026-05-06 17:37 56.00502 43.71046 33860 ft 424 kts 277°
2026-05-06 17:38 56.01180 43.60561 33861 ft 426 kts 277°
2026-05-06 17:38 56.01848 43.50103 33869 ft 427 kts 277°
2026-05-06 17:39 56.02509 43.39546 33878 ft 428 kts 277°
2026-05-06 17:39 56.03071 43.28956 33887 ft 429 kts 274°
2026-05-06 17:40 56.03261 43.18295 33899 ft 429 kts 272°
2026-05-06 17:40 56.03324 43.07691 33902 ft 430 kts 272°
2026-05-06 17:41 56.03437 42.97011 33904 ft 430 kts 272°
2026-05-06 17:41 56.03599 42.86332 33909 ft 429 kts 272°
2026-05-06 17:42 56.03764 42.75661 33914 ft 429 kts 272°
2026-05-06 17:42 56.03904 42.65068 33914 ft 429 kts 272°
2026-05-06 17:43 56.04024 42.54407 33918 ft 428 kts 272°
2026-05-06 17:43 56.04109 42.43757 33918 ft 428 kts 272°
2026-05-06 17:44 56.04162 42.33115 33922 ft 428 kts 271°
2026-05-06 17:44 56.04206 42.22556 33919 ft 427 kts 271°
2026-05-06 17:45 56.04244 42.11931 33919 ft 427 kts 271°
2026-05-06 17:45 56.04279 42.01315 33927 ft 427 kts 271°
2026-05-06 17:46 56.04304 41.90706 33923 ft 427 kts 271°
2026-05-06 17:46 56.04323 41.80172 33925 ft 426 kts 271°
2026-05-06 17:47 56.04327 41.69571 33924 ft 426 kts 271°
2026-05-06 17:47 56.04327 41.58972 33922 ft 426 kts 271°
2026-05-06 17:48 56.04311 41.48376 33925 ft 426 kts 271°
2026-05-06 17:48 56.04288 41.37856 33929 ft 426 kts 271°
2026-05-06 17:49 56.04263 41.27272 33929 ft 426 kts 271°
2026-05-06 17:49 56.04223 41.16690 33930 ft 425 kts 271°
2026-05-06 17:50 56.04177 41.06112 33933 ft 425 kts 271°
2026-05-06 17:50 56.04123 40.95614 33932 ft 425 kts 270°
2026-05-06 17:51 56.04052 40.85050 33929 ft 425 kts 270°
2026-05-06 17:51 56.03965 40.74485 33932 ft 425 kts 270°
2026-05-06 17:52 56.03878 40.63930 33935 ft 424 kts 270°
2026-05-06 17:52 56.03791 40.53378 33937 ft 424 kts 270°
2026-05-06 17:53 56.03694 40.43353 33933 ft 424 kts 270°
2026-05-06 17:53 56.03579 40.32813 33935 ft 424 kts 270°
2026-05-06 17:54 56.03453 40.22277 33937 ft 424 kts 270°
2026-05-06 17:54 56.03326 40.11817 33936 ft 423 kts 270°
2026-05-06 17:55 56.03189 40.01293 33933 ft 423 kts 270°
2026-05-06 17:55 56.03040 39.90780 33936 ft 423 kts 270°
2026-05-06 17:56 56.02878 39.80268 33933 ft 423 kts 269°
2026-05-06 17:56 56.02708 39.69761 33935 ft 423 kts 269°
2026-05-06 17:57 56.02542 39.59333 33936 ft 422 kts 270°
2026-05-06 17:57 56.02394 39.48839 33936 ft 422 kts 270°
2026-05-06 17:58 56.02235 39.38353 33936 ft 422 kts 269°
2026-05-06 17:58 56.02063 39.27878 33937 ft 422 kts 269°
2026-05-06 17:59 56.01882 39.17472 33932 ft 421 kts 269°
2026-05-06 17:59 56.01689 39.07012 33935 ft 421 kts 269°
2026-05-06 18:00 56.01487 38.96548 33936 ft 421 kts 269°
2026-05-06 18:00 56.01282 38.86085 33935 ft 421 kts 269°
2026-05-06 18:01 56.01060 38.75701 33934 ft 421 kts 269°
2026-05-06 18:01 56.00828 38.65253 33934 ft 421 kts 269°
2026-05-06 18:02 56.00597 38.54804 33934 ft 421 kts 269°
2026-05-06 18:02 56.00358 38.44366 33932 ft 421 kts 268°
2026-05-06 18:03 56.00107 38.33995 33935 ft 421 kts 268°
2026-05-06 18:03 55.99844 38.23562 33927 ft 421 kts 268°
2026-05-06 18:04 55.99571 38.13123 33927 ft 420 kts 268°
2026-05-06 18:04 55.99294 38.02688 33931 ft 420 kts 268°
2026-05-06 18:05 55.99000 37.92261 33931 ft 420 kts 268°
2026-05-06 18:05 55.98694 37.81897 33933 ft 421 kts 268°
2026-05-06 18:06 55.98393 37.71469 33935 ft 421 kts 268°
2026-05-06 18:06 55.98097 37.61038 33937 ft 421 kts 268°
2026-05-06 18:07 55.97787 37.50607 33937 ft 421 kts 267°
2026-05-06 18:07 55.97480 37.40173 33936 ft 421 kts 270°
2026-05-06 18:08 55.98435 37.30003 33937 ft 421 kts 289°
2026-05-06 18:08 56.01311 37.20932 33935 ft 423 kts 306°
2026-05-06 18:09 56.04862 37.12540 33931 ft 423 kts 305°
2026-05-06 18:09 56.08364 37.04157 33938 ft 423 kts 305°
2026-05-06 18:10 56.11925 36.95754 33936 ft 423 kts 306°
2026-05-06 18:10 56.15512 36.87381 33937 ft 423 kts 305°
2026-05-06 18:11 56.19089 36.78988 33936 ft 423 kts 305°
2026-05-06 18:11 56.22653 36.70572 33486 ft 424 kts 307°
2026-05-06 18:12 56.24439 36.66343 33679 ft 426 kts 307°
2026-05-06 18:12 56.26211 36.62135 33865 ft 428 kts 307°
2026-05-06 18:12 56.28010 36.57849 34011 ft 432 kts 307°
2026-05-06 18:12 56.29834 36.53498 34008 ft 439 kts 307°
2026-05-06 18:13 56.33560 36.44585 34011 ft 451 kts 307°
2026-05-06 18:13 56.36880 36.34969 34012 ft 454 kts 292°
2026-05-06 18:14 56.39133 36.24415 34010 ft 454 kts 290°
2026-05-06 18:14 56.41383 36.13755 34010 ft 454 kts 290°
2026-05-06 18:15 56.43632 36.03087 34012 ft 454 kts 290°
2026-05-06 18:15 56.46571 35.93014 34010 ft 455 kts 307°
2026-05-06 18:16 56.50611 35.84183 34013 ft 455 kts 309°
2026-05-06 18:16 56.54643 35.75428 34018 ft 456 kts 309°
2026-05-06 18:17 56.58688 35.66571 34021 ft 456 kts 309°
2026-05-06 18:17 56.62730 35.57700 34027 ft 456 kts 309°
2026-05-06 18:18 56.66771 35.48809 34023 ft 456 kts 309°
2026-05-06 18:18 56.70782 35.39965 34029 ft 456 kts 309°
2026-05-06 18:19 56.74814 35.31047 34022 ft 456 kts 309°
2026-05-06 18:19 56.78842 35.22106 34026 ft 456 kts 309°
2026-05-06 18:20 56.82861 35.13149 34030 ft 456 kts 309°
2026-05-06 18:20 56.86841 35.04228 34032 ft 456 kts 309°
2026-05-06 18:21 56.90976 34.95444 34023 ft 456 kts 317°
2026-05-06 18:21 56.96106 34.88639 34021 ft 456 kts 327°
2026-05-06 18:22 56.98762 34.85482 34607 ft 451 kts 323°
2026-05-06 18:22 57.01346 34.82407 34585 ft 435 kts 322°
2026-05-06 18:22 57.06302 34.76476 34524 ft 424 kts 322°
2026-05-06 18:23 57.08759 34.73513 34103 ft 422 kts 322°
2026-05-06 18:23 57.11206 34.70555 33932 ft 421 kts 321°
2026-05-06 18:23 57.16110 34.64621 33972 ft 422 kts 321°
2026-05-06 18:24 57.21025 34.58678 33977 ft 422 kts 321°
2026-05-06 18:24 57.25931 34.52709 33980 ft 422 kts 321°
2026-05-06 18:25 57.30793 34.46770 33984 ft 422 kts 321°
2026-05-06 18:25 57.35693 34.40786 33993 ft 422 kts 321°
2026-05-06 18:26 57.40589 34.34777 34001 ft 422 kts 321°
2026-05-06 18:26 57.45485 34.28749 34006 ft 422 kts 321°
2026-05-06 18:27 57.50340 34.22750 34016 ft 422 kts 320°
2026-05-06 18:27 57.55223 34.16690 34020 ft 422 kts 320°
2026-05-06 18:28 57.60102 34.10624 34020 ft 422 kts 320°
2026-05-06 18:28 57.64975 34.04542 34023 ft 421 kts 320°
2026-05-06 18:29 57.69814 33.98494 34021 ft 421 kts 320°
2026-05-06 18:29 57.74682 33.92405 34025 ft 421 kts 320°
2026-05-06 18:30 57.79535 33.86276 34032 ft 420 kts 319°
2026-05-06 18:30 57.84378 33.80126 34032 ft 420 kts 319°
2026-05-06 18:31 57.89163 33.73854 34034 ft 418 kts 316°
2026-05-06 18:31 57.93657 33.67106 34032 ft 415 kts 314°
2026-05-06 18:32 57.98079 33.60120 34020 ft 415 kts 314°
2026-05-06 18:32 58.02538 33.53195 34025 ft 415 kts 314°
2026-05-06 18:33 58.07027 33.46329 34026 ft 415 kts 314°
2026-05-06 18:33 58.11490 33.39519 34028 ft 415 kts 314°
2026-05-06 18:34 58.15966 33.32633 34029 ft 414 kts 314°
2026-05-06 18:34 58.20427 33.25720 34037 ft 414 kts 314°
2026-05-06 18:35 58.24890 33.18804 34036 ft 414 kts 314°
2026-05-06 18:35 58.29309 33.11924 34036 ft 413 kts 313°
2026-05-06 18:36 58.33751 33.04985 34037 ft 413 kts 313°
2026-05-06 18:36 58.38191 32.98040 34033 ft 413 kts 313°
2026-05-06 18:37 58.41870 32.92248 34035 ft 413 kts 313°
2026-05-06 18:37 58.44833 32.87586 33177 ft 412 kts 314°
2026-05-06 18:37 58.47062 32.84089 32099 ft 424 kts 320°